Network for Lightning and Thunderstorms in Real Time - Real time lightning map
Regions/Countries: current only
List of Stations for "Australia / South Australia" sorted ascending by Farthest
(Farthest = Farthest distance to a strike position in whose calculation the station was involved)
StationCityCommentCountryRegionsStatusLast signalTotalValidInvolvedUsedClosestFarthest
1015Lyrup, South Australia300mm ferrite Hfield/800mm Efi...Australia / South AustraliaOceania 1Offline2023-10-21 08:37000024000 km0 km
1015Lyrup, South Australia300mm ferrite Hfield/800mm Efi...Australia / South AustraliaAsia 1Offline2023-10-21 08:37000024000 km0 km
1248RidgehavenRed E200mm onlyAustralia / South AustraliaOceania 1Offline2024-04-10 01:40000024000 km0 km
1694Salisbury, South Australia3 x 200mm Ferrite + 300mm E. F...Australia / South AustraliaOceania 1Offline2022-10-30 00:00000024000 km0 km
2105Port LincolnAustralia / South AustraliaAfrica 1Running2024-04-15 09:261211000 km0 km
2105Port LincolnAustralia / South AustraliaEurope 1Running2024-04-15 09:261211000 km0 km
2105Port LincolnAustralia / South AustraliaSouth America 1Running2024-04-15 09:261211000 km0 km
2105Port LincolnAustralia / South AustraliaOceania 1Running2024-04-15 09:26121111114 km33 km
1016Paringa, South Australia300mm ferrite Hfield/200mm Efi...Australia / South AustraliaOceania 1Running2024-04-15 09:3711032865162793 km2300 km
2271TaperooTestingAustralia / South AustraliaOceania 1Running2024-04-15 09:3710198502990 km3257 km
2438Athelstone (IADELA729)2 x 200mm Ferrite, 200mm E-fie...Australia / South AustraliaOceania 1Running2024-04-15 09:3761794335546363893 km3927 km
2976AdelaideAustralia / South AustraliaOceania 1Running2024-04-15 09:37149331716338968 km3938 km
2175IronbankAustralia / South AustraliaOceania 1Running2024-04-15 09:3765762132794909 km3940 km
2349Mil-LelTesting H FieldAustralia / South AustraliaOceania 1Running2024-04-15 09:38103965301157161054 km4025 km
2271TaperooTestingAustralia / South AustraliaAsia 1Running2024-04-15 09:3710198713282 km4700 km
2953StrathalbynSHR/Hallett/CFS SBYN-02Australia / South AustraliaOceania 1Running2024-04-15 09:38137949719527408918 km4762 km
2667Para Hills WestBack To Testing StageAustralia / South AustraliaOceania 1Offline2024-04-15 08:09762020201195 km5060 km
2353WhyallaMostly relying on e field ante...Australia / South AustraliaJapan 1Running2024-04-15 09:374355122513133678 km5853 km
2271TaperooTestingAustralia / South AustraliaJapan 2Running2024-04-15 09:37101982104952 km7538 km
2353WhyallaMostly relying on e field ante...Australia / South AustraliaAsia 1Running2024-04-15 09:3743551225223673 km7800 km
2353WhyallaMostly relying on e field ante...Australia / South AustraliaOceania 1Running2024-04-15 09:374355122526351962 km7802 km
2353WhyallaMostly relying on e field ante...Australia / South AustraliaSouth America 1Running2024-04-15 09:3743551225110 km8146 km
2353WhyallaMostly relying on e field ante...Australia / South AustraliaEurope 1Running2024-04-15 09:3743551225220 km8146 km
2353WhyallaMostly relying on e field ante...Australia / South AustraliaAfrica 1Running2024-04-15 09:3743551225110 km9274 km
2105Port LincolnAustralia / South AustraliaEurope 2Running2024-04-15 09:261211100 km15957 km
2105Port LincolnAustralia / South AustraliaEurope 3Running2024-04-15 09:261211100 km15957 km
Select your menu language
češtinadanskdeutschελληνικάenglishespañolsuomeksifrançaismagyaritaliano日本語latviskinederlandsenorskмакедонскиpolskiрусскийсрпскиsvenskatürkукраїнський
If your language is not supported and if you want to adapt the menu language, then write an email to info ☺ blitzortung.org.